"Timestamp","TZ","WindDir_Mean (deg)","WindSpd_Mean (km/h)","WindSpd_Min (km/h)","WindSpd_Max (km/h)","Temp_Mean (deg)","RH_Mean (%)","MSLP_Mean (hPa)","Rain_Acc (mm)","Rain_Intensity (mm/h)","Hail_Acc (hits/cm2)","Hail_Intensity (hits/cm2hr)","Solar_Mean (W/m2)"
2021/06/20 00:00:00.013,n,268,8.28,6.12,9.72,13.4,55.9,1015.62,0,0,0,0,0.046158
2021/06/20 00:01:00.000,n,266,6.12,3.6,9,13.4,56.2,1015.52,0,0,0,0,0.04528
2021/06/20 00:02:00.000,n,246,10.8,9.72,12.24,13.3,56.2,1015.52,0,0,0,0,0.04528
2021/06/20 00:03:00.005,n,266,6.48,1.8,10.08,13.3,56.2,1015.52,0,0,0,0,0.044403
2021/06/20 00:04:00.002,n,264,16.2,13.68,17.64,13.3,55.9,1015.52,0,0,0,0,0.043564
2021/06/20 00:05:00.000,n,244,8.28,7.2,8.64,13.3,56.4,1015.52,0,0,0,0,0.042686
2021/06/20 00:06:00.000,n,250,9.72,7.92,11.88,13.3,56.5,1015.52,0,0,0,0,0.047035
2021/06/20 00:07:00.010,n,265,13.68,11.16,15.12,13.2,56.3,1015.52,0,0,0,0,0.043564
2021/06/20 00:08:00.009,n,270,8.64,7.2,11.88,13.2,56.5,1015.52,0,0,0,0,0.043564
2021/06/20 00:09:00.006,n,269,11.52,8.64,13.68,13.2,56.6,1015.52,0,0,0,0,0.042686
2021/06/20 00:10:00.000,n,256,10.8,10.08,11.52,13.1,56.7,1015.52,0,0,0,0,0.050507
2021/06/20 00:11:00.000,n,241,19.08,15.84,21.24,13.1,56.5,1015.42,0,0,0,0,0.046158
2021/06/20 00:12:00.000,n,260,7.92,5.76,9.36,13.1,56.9,1015.52,0,0,0,0,0.047035
2021/06/20 00:13:00.000,n,247,18.359998,13.68,20.16,13.1,56.8,1015.42,0,0,0,0,0.042686
2021/06/20 00:14:00.009,n,262,12.6,11.88,13.68,13.1,57.1,1015.42,0,0,0,0,0.042686
2021/06/20 00:15:00.007,n,283,6.84,4.32,8.64,13,57.5,1015.42,0,0,0,0,0.046158
2021/06/20 00:16:00.005,n,247,9.36,7.2,11.52,13,57.6,1015.42,0,0,0,0,0.042686
2021/06/20 00:17:00.001,n,266,4.68,4.32,5.04,13,58,1015.32,0,0,0,0,0.039177
2021/06/20 00:18:00.015,n,225,9.72,3.96,15.48,13,57.7,1015.32,0,0,0,0,0.044403
2021/06/20 00:19:00.000,n,280,15.84,14.76,17.28,13,57.5,1015.32,0,0,0,0,0.041809
2021/06/20 00:20:00.000,n,272,11.16,7.2,13.68,13,57.8,1015.32,0,0,0,0,0.039177
2021/06/20 00:21:00.000,n,276,11.16,8.64,12.96,13,57.8,1015.32,0,0,0,0,0.040932
2021/06/20 00:22:00.000,n,250,11.52,9,12.96,13,57.8,1015.22,0,0,0,0,0.04528
2021/06/20 00:23:00.004,n,218,9.72,7.92,12.96,12.9,58,1015.22,0,0,0,0,0.040932
2021/06/20 00:24:00.001,n,278,11.16,6.84,12.6,12.9,58,1015.22,0,0,0,0,0.043564
2021/06/20 00:25:00.000,n,277,10.08,8.64,11.88,12.9,58.2,1015.22,0,0,0,0,0.040932
2021/06/20 00:26:00.012,n,260,6.84,1.08,9.36,12.9,58.2,1015.32,0,0,0,0,0.038338
2021/06/20 00:27:00.010,n,264,12.96,11.88,14.4,12.9,58.1,1015.42,0,0,0,0,0.038338
2021/06/20 00:28:00.000,n,246,10.08,9,12.24,12.9,58.2,1015.42,0,0,0,0,0.043564
2021/06/20 00:29:00.003,n,258,11.52,5.4,13.68,12.9,58.3,1015.42,0,0,0,0,0.042686
2021/06/20 00:30:00.001,n,237,7.2,6.48,9,12.9,58.5,1015.42,0,0,0,0,0.039177
2021/06/20 00:31:00.000,n,269,9.36,4.68,11.16,12.9,58.4,1015.42,0,0,0,0,0.039177
2021/06/20 00:32:00.000,n,257,8.64,5.4,13.32,12.9,58.3,1015.42,0,0,0,0,0.042686
2021/06/20 00:33:00.000,n,251,9,8.28,10.08,12.9,58.4,1015.42,0,0,0,0,0.034828
2021/06/20 00:34:00.007,n,263,11.16,8.64,15.84,12.9,58.3,1015.42,0,0,0,0,0.035706
2021/06/20 00:35:00.005,n,263,10.8,10.08,11.88,12.9,58.4,1015.42,0,0,0,0,0.041809
2021/06/20 00:36:00.001,n,259,11.52,8.64,15.84,12.9,58.4,1015.42,0,0,0,0,0.033989
2021/06/20 00:37:00.000,n,259,10.08,8.64,11.52,12.9,58.5,1015.52,0,0,0,0,0.036583
2021/06/20 00:38:00.000,n,240,6.48,3.96,8.64,12.9,58.7,1015.42,0,0,0,0,0.038338
2021/06/20 00:39:00.000,n,270,8.28,4.68,15.48,12.9,58.5,1015.42,0,0,0,0,0.038338
2021/06/20 00:40:00.000,n,223,9.72,6.48,12.6,12.8,58.7,1015.42,0,0,0,0,0.032234
2021/06/20 00:41:00.004,n,263,10.08,8.28,11.88,12.8,58.7,1015.42,0,0,0,0,0.031357
2021/06/20 00:42:00.002,n,266,4.68,1.44,7.92,12.8,58.9,1015.42,0,0,0,0,0.033989
2021/06/20 00:43:00.000,n,267,9,7.2,10.440002,12.8,59,1015.52,0,0,0,0,0.032234
2021/06/20 00:44:00.012,n,269,15.48,14.4,16.919998,12.8,58.7,1015.52,0,0,0,0,0.033989
2021/06/20 00:45:00.009,n,283,7.2,6.12,8.28,12.8,59,1015.52,0,0,0,0,0.036583
2021/06/20 00:46:00.000,n,253,9.36,7.2,10.440002,12.8,59.1,1015.52,0,0,0,0,0.039177
2021/06/20 00:47:00.003,n,288,9.36,8.64,10.08,12.8,59.1,1015.52,0,0,0,0,0.037422
2021/06/20 00:48:00.000,n,265,8.64,7.2,9.72,12.8,59.2,1015.52,0,0,0,0,0.035706
2021/06/20 00:49:00.000,n,259,13.68,11.52,15.48,12.8,58.9,1015.52,0,0,0,0,0.036583
2021/06/20 00:50:00.000,n,290,10.440002,9.36,12.24,12.8,59,1015.52,0,0,0,0,0.034828
2021/06/20 00:51:00.008,n,259,12.96,12.6,13.32,12.8,58.9,1015.52,0,0,0,0,0.038338
2021/06/20 00:52:00.004,n,258,18.359998,14.76,23.04,12.8,58.7,1015.52,0,0,0,0,0.038338
2021/06/20 00:53:00.003,n,265,8.64,7.92,9.72,12.8,59.1,1015.52,0,0,0,0,0.037422
2021/06/20 00:54:00.001,n,277,6.48,5.4,8.64,12.8,59.3,1015.52,0,0,0,0,0.037422
2021/06/20 00:55:00.000,n,262,14.04,11.16,15.84,12.8,59,1015.52,0,0,0,0,0.037422
2021/06/20 00:56:00.000,n,275,12.96,10.440002,15.12,12.8,59,1015.52,0,0,0,0,0.039177
2021/06/20 00:57:00.000,n,268,14.4,11.88,15.84,12.8,58.9,1015.52,0,0,0,0,0.02964
2021/06/20 00:58:00.000,n,270,11.16,10.440002,12.6,12.8,59.1,1015.62,0,0,0,0,0.033073
2021/06/20 00:59:00.004,n,266,11.88,10.440002,12.96,12.8,59,1015.62,0,0,0,0,0.030479
2021/06/20 01:00:00.003,n,264,10.08,9,11.52,12.8,59,1015.62,0,0,0,0,0.033073
2021/06/20 01:01:00.000,n,270,12.6,11.16,13.32,12.8,59,1015.62,0,0,0,0,0.035706
2021/06/20 01:02:00.013,n,271,19.44,18.72,20.519998,12.8,58.8,1015.62,0,0,0,0,0.028725
2021/06/20 01:03:00.011,n,275,15.84,14.4,18,12.8,58.7,1015.62,0,0,0,0,0.033989
2021/06/20 01:04:00.000,n,300,12.6,9,18,12.8,58.8,1015.62,0,0,0,0,0.033073
2021/06/20 01:05:00.000,n,254,10.8,10.08,12.24,12.8,58.9,1015.62,0,0,0,0,0.027847
2021/06/20 01:06:00.002,n,269,11.16,9.72,12.24,12.8,58.6,1015.72,0,0,0,0,0.031357
2021/06/20 01:07:00.000,n,266,9.72,7.2,12.6,12.8,59,1015.72,0,0,0,0,0.034828
2021/06/20 01:08:00.000,n,265,9.36,6.12,11.16,12.8,59,1015.72,0,0,0,0,0.033989
2021/06/20 01:09:00.000,n,248,12.24,10.440002,13.68,12.8,58.9,1015.62,0,0,0,0,0.034828
2021/06/20 01:10:00.008,n,288,8.64,6.84,10.08,12.8,59.1,1015.62,0,0,0,0,0.033989
2021/06/20 01:11:00.006,n,262,9,7.2,10.440002,12.8,59.1,1015.62,0,0,0,0,0.035706
2021/06/20 01:12:00.002,n,270,15.84,13.68,18,12.9,58.6,1015.52,0,0,0,0,0.030479
2021/06/20 01:13:00.000,n,271,14.4,12.6,16.56,12.9,58.8,1015.52,0,0,0,0,0.030479
2021/06/20 01:14:00.000,n,273,15.48,14.4,16.56,12.9,58.2,1015.52,0,0,0,0,0.032234
2021/06/20 01:15:00.000,n,276,15.12,12.6,16.2,12.9,58.6,1015.42,0,0,0,0,0.028725
2021/06/20 01:16:00.008,n,252,19.8,16.919998,22.68,12.9,58.5,1015.52,0,0,0,0,0.030479
2021/06/20 01:17:00.005,n,270,14.04,10.08,15.48,12.9,58.5,1015.52,0,0,0,0,0.030479
2021/06/20 01:18:00.002,n,251,9.36,9,9.72,12.9,58.9,1015.52,0,0,0,0,0.031357
2021/06/20 01:19:00.000,n,270,17.64,13.32,18.72,12.9,58.4,1015.42,0,0,0,0,0.033073
2021/06/20 01:20:00.014,n,284,10.08,1.8,14.76,12.9,58.6,1015.42,0,0,0,0,0.028725
2021/06/20 01:21:00.011,n,277,16.56,12.96,18.72,12.9,58.7,1015.42,0,0,0,0,0.026131
2021/06/20 01:22:00.000,n,283,11.52,10.440002,12.6,12.9,58.7,1015.52,0,0,0,0,0.033989
2021/06/20 01:23:00.000,n,234,2.16,1.08,3.24,12.9,59.1,1015.52,0,0,0,0,0.032234
2021/06/20 01:24:00.002,n,251,9,6.48,10.8,12.9,58.8,1015.42,0,0,0,0,0.032234
2021/06/20 01:25:00.000,n,272,21.24,17.28,22.68,12.9,58.3,1015.42,0,0,0,0,0.031357
2021/06/20 01:26:00.000,n,236,5.76,2.88,8.64,12.9,58.8,1015.42,0,0,0,0,0.031357
2021/06/20 01:27:00.000,n,307,6.48,4.68,8.28,12.9,59.8,1015.42,0,0,0,0,0.026131
2021/06/20 01:28:00.009,n,281,15.84,12.6,19.8,12.9,58.4,1015.42,0,0,0,0,0.02964
2021/06/20 01:29:00.006,n,267,15.84,14.76,16.919998,12.9,58.5,1015.42,0,0,0,0,0.030479
2021/06/20 01:30:00.004,n,254,19.08,15.84,20.16,12.9,58.3,1015.42,0,0,0,0,0.024376
2021/06/20 01:31:00.001,n,262,14.76,12.24,16.56,12.9,58.5,1015.42,0,0,0,0,0.027008
2021/06/20 01:32:00.000,n,282,3.96,2.88,5.04,12.9,59.2,1015.52,0,0,0,0,0.025253
2021/06/20 01:33:00.000,n,262,9,7.2,11.16,12.9,58.8,1015.52,0,0,0,0,0.024376
2021/06/20 01:34:00.000,n,270,11.88,7.2,14.4,12.9,59,1015.52,0,0,0,0,0.026131
2021/06/20 01:35:00.005,n,270,9.36,8.28,10.440002,12.8,59.1,1015.62,0,0,0,0,0.032234
2021/06/20 01:36:00.003,n,268,11.16,10.08,12.24,12.8,59.1,1015.62,0,0,0,0,0.030479
2021/06/20 01:37:00.000,n,272,7.92,7.2,8.64,12.8,59.3,1015.62,0,0,0,0,0.027847
2021/06/20 01:38:00.013,n,252,6.84,1.44,10.440002,12.8,59.4,1015.62,0,0,0,0,0.024376
2021/06/20 01:39:00.010,n,272,11.88,11.52,12.6,12.8,59.4,1015.62,0,0,0,0,0.02964
2021/06/20 01:40:00.000,n,277,11.16,10.440002,12.6,12.8,59.2,1015.62,0,0,0,0,0.02964
2021/06/20 01:41:00.000,n,269,3.24,1.08,5.76,12.8,59.6,1015.52,0,0,0,0,0.024376
2021/06/20 01:42:00.003,n,267,10.440002,7.92,12.24,12.8,59.5,1015.42,0,0,0,0,0.023499
2021/06/20 01:43:00.001,n,253,10.440002,9.72,11.88,12.8,59.4,1015.42,0,0,0,0,0.027008
2021/06/20 01:44:00.000,n,250,12.24,10.8,13.32,12.8,59.2,1015.42,0,0,0,0,0.027008
2021/06/20 01:45:00.010,n,263,10.08,9.36,11.52,12.8,59.5,1015.32,0,0,0,0,0.028725
2021/06/20 01:46:00.007,n,271,7.92,7.2,8.64,12.8,59.6,1015.32,0,0,0,0,0.024376
2021/06/20 01:47:00.005,n,264,9.72,7.2,11.16,12.7,59.4,1015.32,0,0,0,0,0.027008
2021/06/20 01:48:00.002,n,270,4.32,3.6,5.4,12.7,59.8,1015.32,0,0,0,0,0.030479
2021/06/20 01:49:00.000,n,227,5.04,3.96,5.4,12.7,59.8,1015.32,0,0,0,0,0.026131
2021/06/20 01:50:00.000,n,261,6.84,6.12,7.56,12.7,59.8,1015.32,0,0,0,0,0.02964
2021/06/20 01:51:00.000,n,255,12.6,9.36,14.04,12.7,59.7,1015.42,0,0,0,0,0.030479
2021/06/20 01:52:00.000,n,268,6.12,2.88,7.56,12.7,59.9,1015.42,0,0,0,0,0.028725
2021/06/20 01:53:00.006,n,263,11.88,10.440002,13.32,12.7,59.8,1015.42,0,0,0,0,0.027847
2021/06/20 01:54:00.003,n,235,6.84,5.76,8.64,12.7,59.9,1015.42,0,0,0,0,0.024376
2021/06/20 01:55:00.000,n,264,7.2,6.48,8.28,12.7,60,1015.52,0,0,0,0,0.026131
2021/06/20 01:56:00.014,n,262,9,8.64,9,12.7,59.9,1015.42,0,0,0,0,0.026131
2021/06/20 01:57:00.012,n,287,3.6,2.16,5.4,12.7,60.2,1015.52,0,0,0,0,0.025253
2021/06/20 01:58:00.000,n,271,7.2,6.84,7.92,12.7,60.2,1015.52,0,0,0,0,0.028725
2021/06/20 01:59:00.000,n,242,8.28,6.48,9.36,12.6,60.2,1015.52,0,0,0,0,0.026131
2021/06/20 02:00:00.002,n,270,5.4,3.96,6.48,12.6,60.3,1015.62,0,0,0,0,0.028725
2021/06/20 02:01:00.000,n,267,4.68,2.52,7.56,12.6,60.2,1015.62,0,0,0,0,0.030479
2021/06/20 02:02:00.000,n,291,7.2,5.76,8.28,12.6,60.3,1015.62,0,0,0,0,0.032234
2021/06/20 02:03:00.009,n,247,9,8.64,9.72,12.6,60.4,1015.62,0,0,0,0,0.021782
2021/06/20 02:04:00.006,n,282,6.84,2.88,8.28,12.6,60.4,1015.72,0,0,0,0,0.028725
2021/06/20 02:05:00.004,n,265,2.52,1.44,3.6,12.6,60.5,1015.72,0,0,0,0,0.026131
2021/06/20 02:06:00.002,n,251,6.84,5.76,7.2,12.6,60.4,1015.72,0,0,0,0,0.030479
2021/06/20 02:07:00.000,n,261,5.04,0.72,6.48,12.6,60.5,1015.72,0,0,0,0,0.028725
2021/06/20 02:08:00.000,n,274,6.12,5.4,7.56,12.6,60.5,1015.82,0,0,0,0,0.024376
2021/06/20 02:09:00.000,n,292,2.88,2.52,3.6,12.6,60.6,1015.82,0,0,0,0,0.028725
2021/06/20 02:10:00.006,n,258,10.440002,9.72,11.16,12.5,60.4,1015.82,0,0,0,0,0.027847
2021/06/20 02:11:00.003,n,248,9,8.28,10.08,12.5,60.5,1015.72,0,0,0,0,0.027847
2021/06/20 02:12:00.000,n,255,9,8.28,10.08,12.5,60.6,1015.72,0,0,0,0,0.024376
2021/06/20 02:13:00.000,n,283,7.92,3.24,10.8,12.5,60.7,1015.72,0,0,0,0,0.025253
2021/06/20 02:14:00.011,n,264,5.76,5.04,6.84,12.5,60.6,1015.72,0,0,0,0,0.027847
2021/06/20 02:15:00.008,n,281,1.44,1.08,1.8,12.5,60.7,1015.72,0,0,0,0,0.027008
2021/06/20 02:16:00.000,n,278,10.8,10.440002,11.52,12.5,60.6,1015.72,0,0,0,0,0.025253
2021/06/20 02:17:00.003,n,273,2.52,2.16,3.6,12.5,60.7,1015.72,0,0,0,0,0.025253
2021/06/20 02:18:00.000,n,266,9,7.92,10.08,12.5,60.6,1015.72,0,0,0,0,0.02964
2021/06/20 02:19:00.000,n,297,4.68,2.52,6.48,12.5,60.7,1015.82,0,0,0,0,0.02964
2021/06/20 02:20:00.000,n,257,5.76,5.4,6.12,12.5,60.7,1015.82,0,0,0,0,0.036583
2021/06/20 02:21:00.008,n,243,5.04,2.16,6.12,12.5,60.8,1015.82,0,0,0,0,0.028725
2021/06/20 02:22:00.005,n,265,6.84,5.4,8.64,12.5,60.7,1015.82,0,0,0,0,0.027008
2021/06/20 02:23:00.003,n,74,1.08,0.36,1.44,12.5,60.8,1015.82,0,0,0,0,0.026131
2021/06/20 02:24:00.000,n,248,5.4,3.6,6.84,12.5,60.8,1015.82,0,0,0,0,0.030479
2021/06/20 02:25:00.000,n,269,6.48,5.76,7.56,12.5,60.7,1015.72,0,0,0,0,0.032234
2021/06/20 02:26:00.000,n,270,8.64,8.28,9.36,12.5,60.6,1015.72,0,0,0,0,0.030479
2021/06/20 02:27:00.000,n,234,11.16,9,11.88,12.5,60.7,1015.62,0,0,0,0,0.028725
2021/06/20 02:28:00.006,n,235,6.84,6.12,7.56,12.5,60.8,1015.62,0,0,0,0,0.027847
2021/06/20 02:29:00.004,n,240,7.2,6.48,8.28,12.5,60.8,1015.52,0,0,0,0,0.026131
2021/06/20 02:30:00.001,n,255,8.28,7.56,9.72,12.5,60.7,1015.52,0,0,0,0,0.026131
2021/06/20 02:31:00.000,n,251,7.56,6.48,8.64,12.5,60.7,1015.52,0,0,0,0,0.031357
2021/06/20 02:32:00.013,n,271,5.76,4.68,6.84,12.5,60.8,1015.52,0,0,0,0,0.027008
2021/06/20 02:33:00.010,n,227,3.24,2.88,3.96,12.5,60.8,1015.62,0,0,0,0,0.023499
2021/06/20 02:34:00.000,n,307,2.52,1.8,3.96,12.5,60.9,1015.62,0,0,0,0,0.027008
2021/06/20 02:35:00.000,n,142,2.88,2.52,3.6,12.5,61.1,1015.62,0,0,0,0,0.026131
2021/06/20 02:36:00.001,n,279,1.08,0.72,1.8,12.5,61.1,1015.62,0,0,0,0,0.027008
2021/06/20 02:37:00.000,n,223,4.32,1.8,6.48,12.4,61.2,1015.62,0,0,0,0,0.024376
2021/06/20 02:38:00.000,n,257,5.04,4.32,5.76,12.4,61.2,1015.62,0,0,0,0,0.023499
2021/06/20 02:39:00.008,n,224,1.44,0.72,1.8,12.4,61.3,1015.62,0,0,0,0,0.028725
2021/06/20 02:40:00.006,n,238,1.44,0.72,1.44,12.4,61.4,1015.62,0,0,0,0,0.027008
2021/06/20 02:41:00.004,n,203,3.96,3.24,4.68,12.3,61.5,1015.52,0,0,0,0,0.026131
2021/06/20 02:42:00.001,n,161,0.36,0.36,0.72,12.3,61.6,1015.52,0,0,0,0,0.024376
2021/06/20 02:43:00.000,n,279,3.24,2.52,3.96,12.3,61.7,1015.52,0,0,0,0,0.01915
2021/06/20 02:44:00.000,n,255,3.6,2.88,4.32,12.3,61.7,1015.52,0,0,0,0,0.01915
2021/06/20 02:45:00.000,n,261,3.96,2.52,4.32,12.3,61.7,1015.52,0,0,0,0,0.023499
2021/06/20 02:46:00.000,n,248,5.04,4.68,5.4,12.3,61.8,1015.52,0,0,0,0,0.020866
2021/06/20 02:47:00.005,n,274,1.8,1.44,2.52,12.3,62,1015.52,0,0,0,0,0.021782
2021/06/20 02:48:00.002,n,254,3.96,3.24,4.32,12.3,61.9,1015.52,0,0,0,0,0.02964
2021/06/20 02:49:00.000,n,251,3.24,2.88,3.96,12.3,61.9,1015.52,0,0,0,0,0.021782
2021/06/20 02:50:00.014,n,237,1.44,0.72,1.8,12.3,62,1015.52,0,0,0,0,0.018311
2021/06/20 02:51:00.011,n,255,1.44,1.08,2.16,12.2,62.1,1015.52,0,0,0,0,0.01915
2021/06/20 02:52:00.000,n,276,1.08,0.72,1.8,12.2,62.2,1015.52,0,0,0,0,0.022659
2021/06/20 02:53:00.000,n,214,4.32,3.6,4.68,12.2,62.3,1015.52,0,0,0,0,0.024376
2021/06/20 02:54:00.002,n,262,3.24,2.52,3.96,12.2,62.3,1015.62,0,0,0,0,0.022659
2021/06/20 02:55:00.000,n,273,5.04,4.68,5.4,12.2,62.4,1015.62,0,0,0,0,0.020866
2021/06/20 02:56:00.000,n,269,3.6,3.24,3.96,12.1,62.5,1015.62,0,0,0,0,0.021782
2021/06/20 02:57:00.009,n,243,1.8,0.72,2.88,12.1,62.5,1015.62,0,0,0,0,0.01915
2021/06/20 02:58:00.006,n,277,7.2,6.48,7.92,12.1,62.5,1015.52,0,0,0,0,0.03746
2021/06/20 02:59:00.003,n,218,3.6,3.24,3.96,12.1,62.7,1015.52,0,0,0,0,0.040054
2021/06/20 03:00:00.001,n,228,3.24,2.88,3.24,12.1,62.8,1015.52,0,0,0,0,0.036621
2021/06/20 03:01:00.000,n,251,1.8,0.72,2.88,12.1,63.3,1015.52,0,0,0,0,0.038338
2021/06/20 03:02:00.000,n,174,1.8,0.72,2.52,12.1,62.9,1015.52,0,0,0,0,0.040054
2021/06/20 03:03:00.000,n,281,1.8,0.72,2.52,12.1,63.1,1015.52,0,0,0,0,0.033989
2021/06/20 03:04:00.000,n,262,5.4,5.04,6.12,12.1,63.1,1015.52,0,0,0,0,0.034828
2021/06/20 03:05:00.004,n,238,5.04,4.68,5.4,12,63,1015.42,0,0,0,0,0.038338
2021/06/20 03:06:00.001,n,254,7.2,6.84,7.92,12,62.9,1015.42,0,0,0,0,0.033112
2021/06/20 03:07:00.000,n,239,6.84,6.12,7.92,12,62.9,1015.42,0,0,0,0,0.033989
2021/06/20 03:08:00.011,n,238,4.32,3.6,5.04,12,63,1015.32,0,0,0,0,0.036621
2021/06/20 03:09:00.009,n,259,5.04,3.96,6.12,12,63,1015.32,0,0,0,0,0.03746
2021/06/20 03:10:00.000,n,263,6.12,5.76,6.84,12,62.9,1015.32,0,0,0,0,0.032272
2021/06/20 03:11:00.000,n,268,5.04,3.6,5.76,12,62.9,1015.22,0,0,0,0,0.031357
2021/06/20 03:12:00.000,n,233,5.04,2.16,8.28,12,62.9,1015.22,0,0,0,0,0.036621
2021/06/20 03:13:00.000,n,258,3.96,3.6,3.96,12,62.9,1015.22,0,0,0,0,0.026131
2021/06/20 03:14:00.000,n,294,3.6,2.52,4.68,12,63,1015.22,0,0,0,0,0.032272
2021/06/20 03:15:00.008,n,272,4.32,3.6,4.68,12,63.1,1015.22,0,0,0,0,0.034828
2021/06/20 03:16:00.005,n,248,2.88,2.16,3.24,12,63.3,1015.32,0,0,0,0,0.030479
2021/06/20 03:17:00.002,n,267,5.04,2.88,6.84,12,63.2,1015.32,0,0,0,0,0.033112
2021/06/20 03:18:00.001,n,281,4.68,4.32,5.04,12,63.4,1015.32,0,0,0,0,0.032272
2021/06/20 03:19:00.000,n,282,7.2,6.48,8.28,12,63,1015.22,0,0,0,0,0.033989
2021/06/20 03:20:00.000,n,216,3.24,2.88,3.6,12,63.1,1015.22,0,0,0,0,0.033112
2021/06/20 03:21:00.000,n,295,5.76,4.68,6.48,12,63,1015.32,0,0,0,0,0.033989
2021/06/20 03:22:00.005,n,259,6.84,6.48,9,12,63.1,1015.32,0,0,0,0,0.02964
2021/06/20 03:23:00.003,n,261,5.76,5.04,7.56,12,63.1,1015.32,0,0,0,0,0.033112
2021/06/20 03:24:00.001,n,270,5.4,4.68,6.48,12,63.2,1015.42,0,0,0,0,0.027885
2021/06/20 03:25:00.000,n,270,8.64,7.92,9.72,12,63.1,1015.42,0,0,0,0,0.030479
2021/06/20 03:26:00.011,n,282,5.76,4.32,9,12,63.1,1015.42,0,0,0,0,0.035706
2021/06/20 03:27:00.009,n,244,10.08,9.36,10.440002,12,63,1015.42,0,0,0,0,0.032272
2021/06/20 03:28:00.000,n,294,9.36,8.64,9.72,12,63.1,1015.42,0,0,0,0,0.03746
2021/06/20 03:29:00.002,n,249,6.84,6.48,7.56,12,63.1,1015.42,0,0,0,0,0.031357
2021/06/20 03:30:00.000,n,251,13.32,12.6,14.04,12,62.6,1015.42,0,0,0,0,0.032272
2021/06/20 03:31:00.000,n,271,9,7.56,10.08,12,62.9,1015.42,0,0,0,0,0.023499
2021/06/20 03:32:00.000,n,267,4.68,3.96,6.48,12,63,1015.42,0,0,0,0,0.030479
2021/06/20 03:33:00.007,n,260,11.52,11.16,12.6,12,62.7,1015.32,0,0,0,0,0.02964
2021/06/20 03:34:00.005,n,229,5.4,3.96,6.84,12,62.9,1015.42,0,0,0,0,0.033112
2021/06/20 03:35:00.002,n,239,9.36,8.64,10.08,12,62.6,1015.42,0,0,0,0,0.033112
2021/06/20 03:36:00.015,n,252,7.92,6.12,8.64,12,62.8,1015.42,0,0,0,0,0.032272
2021/06/20 03:37:00.000,n,230,7.92,7.2,8.64,12,62.9,1015.52,0,0,0,0,0.028763
2021/06/20 03:38:00.000,n,208,2.16,1.08,3.24,12,63,1015.52,0,0,0,0,0.02964
2021/06/20 03:39:00.000,n,230,2.16,1.44,2.52,12,63.1,1015.52,0,0,0,0,0.032272
2021/06/20 03:40:00.005,n,276,6.84,5.76,8.28,12,63,1015.52,0,0,0,0,0.024414
2021/06/20 03:41:00.002,n,153,2.16,0.72,2.88,12,63.2,1015.52,0,0,0,0,0.031357
2021/06/20 03:42:00.000,n,281,4.68,4.32,4.68,12,63.2,1015.52,0,0,0,0,0.032272
2021/06/20 03:43:00.012,n,205,3.96,2.16,5.04,11.9,63.2,1015.52,0,0,0,0,0.032272
2021/06/20 03:44:00.009,n,275,4.68,3.96,5.04,11.9,63.3,1015.52,0,0,0,0,0.020905
2021/06/20 03:45:00.006,n,245,3.6,2.16,4.68,11.9,63.3,1015.52,0,0,0,0,0.025291
2021/06/20 03:46:00.000,n,235,8.64,7.92,9,11.9,63.3,1015.52,0,0,0,0,0.030479
2021/06/20 03:47:00.000,n,253,8.28,7.56,9.72,11.9,63.3,1015.52,0,0,0,0,0.024414
2021/06/20 03:48:00.000,n,272,2.16,0.72,3.6,11.9,63.4,1015.52,0,0,0,0,0.022659
2021/06/20 03:49:00.000,n,250,5.76,5.04,6.48,11.9,63.4,1015.52,0,0,0,0,0.031357
2021/06/20 03:50:00.008,n,233,5.4,3.96,6.84,11.9,63.4,1015.62,0,0,0,0,0.027008
2021/06/20 03:51:00.007,n,260,6.84,5.4,7.56,11.9,63.3,1015.62,0,0,0,0,0.022659
2021/06/20 03:52:00.004,n,280,6.48,5.76,7.2,11.9,63.5,1015.62,0,0,0,0,0.027008
2021/06/20 03:53:00.001,n,280,3.6,1.8,5.04,11.9,63.5,1015.72,0,0,0,0,0.027008
2021/06/20 03:54:00.015,n,236,5.4,5.4,6.12,11.9,63.5,1015.72,0,0,0,0,0.028763
2021/06/20 03:55:00.000,n,262,2.52,0.72,3.6,11.9,63.6,1015.72,0,0,0,0,0.028763
2021/06/20 03:56:00.000,n,128,1.8,1.08,2.16,11.9,63.7,1015.72,0,0,0,0,0.025291
2021/06/20 03:57:00.000,n,141,1.08,0.72,1.44,11.9,63.7,1015.72,0,0,0,0,0.023499
2021/06/20 03:58:00.004,n,271,4.68,4.32,5.4,11.8,63.7,1015.72,0,0,0,0,0.02964
2021/06/20 03:59:00.002,n,255,5.76,5.4,6.48,11.8,63.7,1015.72,0,0,0,0,0.023499
2021/06/20 04:00:00.000,n,270,6.48,6.12,7.56,11.8,63.7,1015.72,0,0,0,0,0.026131
2021/06/20 04:01:00.000,n,251,7.56,6.48,8.64,11.8,63.7,1015.72,0,0,0,0,0.027008
2021/06/20 04:02:00.010,n,278,2.52,2.16,2.88,11.8,63.7,1015.72,0,0,0,0,0.027885
2021/06/20 04:03:00.007,n,256,5.04,4.32,6.48,11.8,63.7,1015.72,0,0,0,0,0.026131
2021/06/20 04:04:00.000,n,271,0.36,0,0.72,11.8,63.8,1015.72,0,0,0,0,0.021782
2021/06/20 04:05:00.002,n,129,1.08,0.36,1.44,11.8,63.8,1015.72,0,0,0,0,0.025291
2021/06/20 04:06:00.000,n,198,1.44,0.72,2.16,11.8,63.9,1015.72,0,0,0,0,0.027885
2021/06/20 04:07:00.000,n,244,2.52,2.52,3.24,11.8,63.9,1015.72,0,0,0,0,0.027885
2021/06/20 04:08:00.000,n,270,4.32,3.96,4.32,11.8,64,1015.72,0,0,0,0,0.020905
2021/06/20 04:09:00.007,n,258,4.68,3.96,6.12,11.7,64,1015.72,0,0,0,0,0.028763
2021/06/20 04:10:00.005,n,241,2.16,0.36,3.96,11.7,64.1,1015.72,0,0,0,0,0.027008
2021/06/20 04:11:00.002,n,279,3.6,3.24,3.96,11.7,64.1,1015.72,0,0,0,0,0.027008
2021/06/20 04:12:00.015,n,217,1.08,1.08,1.08,11.7,64.1,1015.72,0,0,0,0,0.020905
2021/06/20 04:13:00.000,n,228,6.12,5.76,6.48,11.7,64.199996,1015.72,0,0,0,0,0.027008
2021/06/20 04:14:00.000,n,178,6.12,5.4,7.2,11.7,64.1,1015.72,0,0,0,0,0.024414
2021/06/20 04:15:00.000,n,177,5.04,4.68,5.76,11.8,64.199996,1015.72,0,0,0,0,0.023499
2021/06/20 04:16:00.004,n,179,1.08,0.36,1.44,11.8,64.1,1015.72,0,0,0,0,0.021782
2021/06/20 04:17:00.002,n,247,3.96,3.24,5.04,11.8,64.1,1015.72,0,0,0,0,0.018311
2021/06/20 04:18:00.000,n,253,8.64,7.92,9.36,11.7,64,1015.72,0,0,0,0,0.027008
2021/06/20 04:19:00.013,n,256,2.88,2.52,3.96,11.8,64.1,1015.72,0,0,0,0,0.022659
2021/06/20 04:20:00.010,n,187,2.16,1.8,2.52,11.8,64.199996,1015.72,0,0,0,0,0.021782
2021/06/20 04:21:00.007,n,259,4.32,3.96,4.68,11.7,64.1,1015.72,0,0,0,0,0.020905
2021/06/20 04:22:00.000,n,256,5.4,5.04,6.12,11.7,64.1,1015.72,0,0,0,0,0.024414
2021/06/20 04:23:00.000,n,258,6.48,5.04,6.84,11.7,64.1,1015.72,0,0,0,0,0.021782
2021/06/20 04:24:00.000,n,206,3.6,1.8,5.04,11.7,64.199996,1015.82,0,0,0,0,0.016556
2021/06/20 04:25:00.000,n,250,2.16,1.8,2.88,11.7,64.199996,1015.82,0,0,0,0,0.020027
2021/06/20 04:26:00.000,n,279,4.68,2.88,5.76,11.7,64.300004,1015.82,0,0,0,0,0.027008
2021/06/20 04:27:00.006,n,239,2.52,1.8,3.6,11.7,64.300004,1015.82,0,0,0,0,0.034828
2021/06/20 04:28:00.003,n,257,6.12,5.4,6.48,11.7,64.300004,1015.82,0,0,0,0,0.033073
2021/06/20 04:29:00.000,n,256,6.84,5.04,7.56,11.7,64.199996,1015.82,0,0,0,0,0.039177
2021/06/20 04:30:00.014,n,255,4.68,3.96,5.04,11.7,64.300004,1015.82,0,0,0,0,0.03746
2021/06/20 04:31:00.000,n,247,5.76,5.04,7.56,11.7,64.300004,1015.82,0,0,0,0,0.035706
2021/06/20 04:32:00.000,n,236,2.88,2.52,3.24,11.7,64.300004,1015.82,0,0,0,0,0.03746
2021/06/20 04:33:00.000,n,257,5.04,4.68,5.4,11.7,64.300004,1015.82,0,0,0,0,0.034828
2021/06/20 04:34:00.003,n,241,3.6,2.88,3.96,11.7,64.300004,1015.82,0,0,0,0,0.02964
2021/06/20 04:35:00.000,n,124,0.72,0.36,1.08,11.7,64.4,1015.82,0,0,0,0,0.02964
2021/06/20 04:36:00.000,n,192,1.08,0.72,1.44,11.7,64.4,1015.82,0,0,0,0,0.034828
2021/06/20 04:37:00.012,n,211,5.4,3.6,6.48,11.7,64.5,1015.82,0,0,0,0,0.02964
2021/06/20 04:38:00.008,n,282,2.16,2.16,2.88,11.6,64.6,1015.82,0,0,0,0,0.030479
2021/06/20 04:39:00.005,n,275,1.08,0.72,1.8,11.6,64.6,1015.82,0,0,0,0,0.033073
2021/06/20 04:40:00.000,n,229,1.8,0.72,2.52,11.6,64.699996,1015.82,0,0,0,0,0.035706
2021/06/20 04:41:00.000,n,192,2.16,0.72,3.6,11.6,64.699996,1015.82,0,0,0,0,0.033989
2021/06/20 04:42:00.000,n,259,2.16,1.8,2.88,11.6,64.699996,1015.92,0,0,0,0,0.035706
2021/06/20 04:43:00.000,n,139,0.36,0.36,0.72,11.6,64.699996,1015.92,0,0,0,0,0.032234
2021/06/20 04:44:00.008,n,211,1.08,0.36,1.8,11.6,64.9,1015.92,0,0,0,0,0.032234
2021/06/20 04:45:00.005,n,146,1.8,0.72,3.96,11.6,65.199996,1015.92,0,0,0,0,0.034828
2021/06/20 04:46:00.003,n,291,1.44,1.08,2.16,11.6,65,1015.92,0,0,0,0,0.030479
2021/06/20 04:47:00.001,n,268,2.16,1.44,2.52,11.6,65,1015.92,0,0,0,0,0.031357
2021/06/20 04:48:00.000,n,129,1.08,0.72,1.08,11.6,65.1,1015.92,0,0,0,0,0.035706
2021/06/20 04:49:00.000,n,174,2.52,2.16,3.24,11.5,65.300004,1015.92,0,0,0,0,0.033989
2021/06/20 04:50:00.000,n,20,2.52,0.72,5.04,11.5,65.5,1015.92,0,0,0,0,0.034828
2021/06/20 04:51:00.000,n,270,4.32,2.16,5.4,11.5,65.4,1015.92,0,0,0,0,0.033989
2021/06/20 04:52:00.005,n,182,0.72,0,1.44,11.5,65.4,1016.02,0,0,0,0,0.02964